• en Belgique
  • Liste des pays
  • À 7 jours
  • Température de l'eau
  • Carte satellitaire
  • Carte météo
  • Widgets météo
  • user-avatar
    Se connecter

    Météo par heure à Sowiniec

    Ce jour, 25 Avril, Mercredi

    Heure Température Précipitation Vent Pression Humidité
    00:00 +14°C° 0 mm 2 m/s 739 mmHg 70%
    01:00 +14°C° 0 mm 2 m/s 739 mmHg 71%
    02:00 +13°C° 0 mm 2 m/s 738 mmHg 70%
    03:00 +13°C° 0 mm 2 m/s 738 mmHg 72%
    04:00 +13°C° 0 mm 2 m/s 738 mmHg 75%
    05:00 +13°C° 0 mm 2 m/s 738 mmHg 77%
    06:00 +14°C° 0 mm 2 m/s 738 mmHg 75%
    07:00 +15°C° 0 mm 2 m/s 738 mmHg 73%
    08:00 +16°C° 0 mm 2 m/s 738 mmHg 69%
    09:00 +17°C° 0 mm 3 m/s 738 mmHg 66%
    10:00 +18°C° 0 mm 3 m/s 738 mmHg 62%
    11:00 +19°C° 0 mm 4 m/s 738 mmHg 58%
    12:00 +21°C° 0 mm 5 m/s 737 mmHg 54%
    13:00 +22°C° 0 mm 5 m/s 737 mmHg 50%
    14:00 +23°C° 0 mm 6 m/s 736 mmHg 46%
    15:00 +23°C° 0 mm 6 m/s 735 mmHg 48%
    16:00 +23°C° 0 mm 5 m/s 735 mmHg 50%
    17:00 +23°C° 0 mm 5 m/s 734 mmHg 52%
    18:00 +21°C° 0,1 mm 5 m/s 734 mmHg 56%
    19:00 +20°C° 0,1 mm 4 m/s 734 mmHg 59%
    20:00 +19°C° 0,1 mm 4 m/s 734 mmHg 63%
    21:00 +18°C° 0,2 mm 4 m/s 734 mmHg 68%
    22:00 +17°C° 0,2 mm 4 m/s 734 mmHg 73%
    23:00 +15°C° 0,2 mm 4 m/s 735 mmHg 78%

    Demain, 26 Avril, Jeudi

    Heure Température Précipitation Vent Pression Humidité
    00:00 +14°C° 0 mm 4 m/s 735 mmHg 80%
    01:00 +14°C° 0 mm 4 m/s 736 mmHg 83%
    02:00 +13°C° 0 mm 4 m/s 736 mmHg 86%
    03:00 +12°C° 0 mm 4 m/s 736 mmHg 87%
    04:00 +11°C° 0 mm 4 m/s 737 mmHg 89%
    05:00 +10°C° 0 mm 3 m/s 737 mmHg 91%
    06:00 +11°C° 0 mm 4 m/s 738 mmHg 84%
    07:00 +11°C° 0 mm 4 m/s 738 mmHg 78%
    08:00 +12°C° 0 mm 4 m/s 739 mmHg 71%
    09:00 +13°C° 0 mm 4 m/s 739 mmHg 66%
    10:00 +14°C° 0 mm 4 m/s 739 mmHg 60%
    11:00 +15°C° 0 mm 4 m/s 739 mmHg 55%
    12:00 +16°C° 0 mm 3 m/s 739 mmHg 56%
    13:00 +14°C° 0 mm 3 m/s 739 mmHg 58%
    14:00 +15°C° 0 mm 2 m/s 739 mmHg 59%
    15:00 +15°C° 0,1 mm 2 m/s 738 mmHg 64%
    16:00 +14°C° 0,1 mm 2 m/s 738 mmHg 68%
    17:00 +14°C° 0,1 mm 2 m/s 738 mmHg 72%
    18:00 +13°C° 0,2 mm 2 m/s 738 mmHg 77%
    19:00 +12°C° 0,2 mm 3 m/s 738 mmHg 82%
    20:00 +11°C° 0,2 mm 3 m/s 739 mmHg 87%
    21:00 +11°C° 0 mm 3 m/s 739 mmHg 85%
    22:00 +10°C° 0 mm 4 m/s 739 mmHg 84%
    23:00 +10°C° 0 mm 4 m/s 739 mmHg 82%

    Après-demain, 27 Avril, Vendredi

    Heure Température Précipitation Vent Pression Humidité
    00:00 +8°C° 0 mm 4 m/s 740 mmHg 84%
    01:00 +8°C° 0 mm 4 m/s 740 mmHg 85%
    02:00 +7°C° 0 mm 4 m/s 740 mmHg 86%
    03:00 +7°C° 0 mm 3 m/s 740 mmHg 87%
    04:00 +5°C° 0 mm 3 m/s 741 mmHg 89%
    05:00 +5°C° 0 mm 3 m/s 741 mmHg 90%
    06:00 +7°C° 0 mm 3 m/s 741 mmHg 85%
    07:00 +7°C° 0 mm 4 m/s 742 mmHg 80%
    08:00 +8°C° 0 mm 4 m/s 742 mmHg 75%
    09:00 +11°C° 0 mm 4 m/s 742 mmHg 68%
    10:00 +12°C° 0 mm 4 m/s 743 mmHg 60%
    11:00 +13°C° 0 mm 4 m/s 743 mmHg 53%
    12:00 +14°C° 0 mm 4 m/s 743 mmHg 50%
    13:00 +15°C° 0 mm 4 m/s 743 mmHg 47%
    14:00 +16°C° 0 mm 3 m/s 743 mmHg 44%
    15:00 +16°C° 0 mm 3 m/s 742 mmHg 44%
    16:00 +16°C° 0 mm 3 m/s 742 mmHg 44%
    17:00 +16°C° 0 mm 2 m/s 742 mmHg 44%
    18:00 +15°C° 0 mm 2 m/s 742 mmHg 49%
    19:00 +13°C° 0 mm 1 m/s 742 mmHg 53%
    20:00 +11°C° 0 mm 1 m/s 742 mmHg 58%
    21:00 +11°C° 0 mm 1 m/s 742 mmHg 61%
    22:00 +9°C° 0 mm 2 m/s 742 mmHg 63%
    23:00 +9°C° 0 mm 3 m/s 743 mmHg 66%

    28 Avril, Samedi

    Heure Température Précipitation Vent Pression Humidité
    00:00 +8°C° 0 mm 3 m/s 742 mmHg 68%
    01:00 +8°C° 0 mm 3 m/s 742 mmHg 70%
    02:00 +8°C° 0 mm 3 m/s 742 mmHg 72%
    03:00 +8°C° 0 mm 3 m/s 742 mmHg 73%
    04:00 +7°C° 0 mm 3 m/s 742 mmHg 75%
    05:00 +7°C° 0 mm 3 m/s 741 mmHg 76%
    06:00 +8°C° 0 mm 4 m/s 741 mmHg 73%
    07:00 +10°C° 0 mm 4 m/s 741 mmHg 69%
    08:00 +12°C° 0 mm 4 m/s 741 mmHg 66%
    09:00 +14°C° 0 mm 4 m/s 741 mmHg 60%
    10:00 +17°C° 0 mm 4 m/s 741 mmHg 54%
    11:00 +19°C° 0 mm 3 m/s 741 mmHg 49%
    12:00 +21°C° 0 mm 3 m/s 741 mmHg 47%
    13:00 +22°C° 0 mm 4 m/s 740 mmHg 45%
    14:00 +23°C° 0 mm 4 m/s 740 mmHg 43%
    15:00 +24°C° 0 mm 3 m/s 740 mmHg 45%
    16:00 +24°C° 0 mm 3 m/s 740 mmHg 47%
    17:00 +24°C° 0 mm 3 m/s 740 mmHg 49%
    18:00 +21°C° 0 mm 2 m/s 740 mmHg 54%
    19:00 +19°C° 0 mm 2 m/s 740 mmHg 60%
    20:00 +18°C° 0 mm 1 m/s 740 mmHg 66%
    21:00 +17°C° 0 mm 2 m/s 740 mmHg 70%
    22:00 +16°C° 0 mm 2 m/s 740 mmHg 74%
    23:00 +15°C° 0 mm 2 m/s 741 mmHg 78%

    29 Avril, Dimanche

    Heure Température Précipitation Vent Pression Humidité
    00:00 +15°C° 0 mm 2 m/s 741 mmHg 82%
    01:00 +14°C° 0 mm 2 m/s 741 mmHg 86%
    02:00 +14°C° 0 mm 2 m/s 741 mmHg 90%
    03:00 +14°C° 0 mm 1 m/s 741 mmHg 90%
    04:00 +13°C° 0 mm 1 m/s 741 mmHg 91%
    05:00 +13°C° 0 mm 1 m/s 741 mmHg 91%
    06:00 +14°C° 0 mm 1 m/s 741 mmHg 87%
    07:00 +16°C° 0 mm 1 m/s 742 mmHg 82%
    08:00 +18°C° 0 mm 1 m/s 742 mmHg 77%
    09:00 +19°C° 0 mm 2 m/s 742 mmHg 72%
    10:00 +21°C° 0 mm 2 m/s 742 mmHg 66%
    11:00 +23°C° 0 mm 2 m/s 742 mmHg 61%
    12:00 +24°C° 0,3 mm 2 m/s 742 mmHg 59%
    13:00 +25°C° 0,3 mm 2 m/s 741 mmHg 58%
    14:00 +25°C° 0,3 mm 2 m/s 741 mmHg 56%
    15:00 +25°C° 0,1 mm 2 m/s 741 mmHg 58%
    16:00 +25°C° 0,1 mm 2 m/s 740 mmHg 60%
    17:00 +25°C° 0,1 mm 2 m/s 740 mmHg 62%
    18:00 +23°C° 0,2 mm 2 m/s 740 mmHg 68%
    19:00 +21°C° 0,2 mm 2 m/s 740 mmHg 73%
    20:00 +19°C° 0,2 mm 2 m/s 740 mmHg 78%
    21:00 +19°C° 0,3 mm 2 m/s 740 mmHg 80%
    22:00 +18°C° 0,3 mm 3 m/s 739 mmHg 81%
    23:00 +17°C° 0,3 mm 3 m/s 739 mmHg 82%

    30 Avril, Lundi

    Heure Température Précipitation Vent Pression Humidité
    00:00 +16°C° 0,1 mm 3 m/s 739 mmHg 82%
    01:00 +14°C° 0,1 mm 3 m/s 738 mmHg 82%
    02:00 +14°C° 0,1 mm 2 m/s 738 mmHg 81%
    03:00 +14°C° 0 mm 2 m/s 738 mmHg 83%
    04:00 +13°C° 0 mm 2 m/s 738 mmHg 84%
    05:00 +13°C° 0 mm 2 m/s 738 mmHg 85%
    06:00 +15°C° 0 mm 2 m/s 738 mmHg 81%
    07:00 +16°C° 0 mm 2 m/s 738 mmHg 77%
    08:00 +18°C° 0 mm 2 m/s 738 mmHg 73%
    09:00 +20°C° 0 mm 2 m/s 738 mmHg 66%
    10:00 +23°C° 0 mm 2 m/s 738 mmHg 60%
    11:00 +25°C° 0 mm 2 m/s 738 mmHg 54%
    12:00 +26°C° 0 mm 3 m/s 738 mmHg 50%
    13:00 +27°C° 0 mm 3 m/s 737 mmHg 47%
    14:00 +28°C° 0 mm 3 m/s 737 mmHg 44%
    15:00 +28°C° 0 mm 3 m/s 737 mmHg 46%
    16:00 +27°C° 0 mm 4 m/s 736 mmHg 48%
    17:00 +27°C° 0 mm 4 m/s 736 mmHg 50%
    18:00 +25°C° 0 mm 4 m/s 736 mmHg 57%
    19:00 +22°C° 0 mm 3 m/s 736 mmHg 63%
    20:00 +19°C° 0 mm 3 m/s 736 mmHg 70%
    21:00 +18°C° 0 mm 3 m/s 736 mmHg 72%
    22:00 +17°C° 0 mm 3 m/s 736 mmHg 73%
    23:00 +16°C° 0 mm 3 m/s 736 mmHg 75%
    Voir plus